Volver al catálogo

COSMOS 2251 DEB

ActivoVLEO
NORAD 34451·DEBRIS·🇷🇺 Russia

Lanzado Jun 16, 1993 desde Plesetsk Cosmodrome

Loading…

Próximos Pases (próximas 24 horas)

TLE

ActualizadoSource: Space-Track

Época: Sep 14, 2026, 09:28 UTC

1 34451U 93036SU  26257.39482145  .00037099  00000-0  17973-2 0  9993
2 34451  74.0381 241.5274 0017715 209.4013 150.6189 15.18235323927884

Sigue COSMOS 2251 DEB en tiempo real con AllMySat

Download on the App Store